Simultaneous Nadir Overpasses (SNOs) Predictions

Prediction of SNOs between AURA and NPP Satellite Orbit:

Table of predicted SNOs for the next 14.0 days since TLE Epoch: 10/1/2022
Index Date (AURA) Time (AURA) Lat,Lon (AURA) SZA (AURA ) Date (NPP) Time (NPP) Lat,Lon (NPP) SZA (NPP ) Distance(km) Time Diff (sec)
1 10/03/2022 02:52:37 79.26, 32.20 96.08 10/03/2022 02:51:59 79.25, 32.05 96.13 3.19 38
2 10/03/2022 03:41:56 -79.57,-158.05 84.35 10/03/2022 03:42:35 -79.57,-158.09 84.37 0.74 39
3 10/05/2022 19:08:59 79.47, 149.47 96.77 10/05/2022 19:08:48 79.47, 149.53 96.76 1.28 11
4 10/05/2022 19:58:22 -79.63, -41.78 83.45 10/05/2022 19:59:29 -79.62, -41.91 83.47 2.67 67
5 10/08/2022 10:36:06 -79.23, 96.16 81.96 10/08/2022 10:35:06 -79.23, 96.15 81.91 0.24 60
6 10/08/2022 11:25:26 79.45, -94.74 97.76 10/08/2022 11:25:44 79.45, -94.88 97.77 3.00 18
7 10/11/2022 02:52:29 -79.35,-147.21 81.15 10/11/2022 02:51:58 -79.35,-147.23 81.12 0.39 31
8 10/11/2022 03:41:49 79.56, 21.91 98.57 10/11/2022 03:42:36 79.55, 21.77 98.57 3.14 47
9 10/13/2022 19:08:52 -79.39, -31.01 80.25 10/13/2022 19:08:51 -79.38, -31.15 80.22 2.99 1



Historial Predications of SNOs between AURA and NPP
